HELLAS-SAT 4 & SGS-1

Last updated on March 8, 2019, 12:02 a.m. UTC

1 44034U 19007A   19066.06820137 -.00000087  00000-0  00000+0 0  9996
2 44034   1.0512 269.2979 3104896 184.8051 285.9495  1.51100806   518
UTC
Height (km)
Latitude
Longitude
Inclination
Orbital Period
UTC large
Height (km)
Speed (km/s)
/
Latitude / Longitude
Inclination (degrees)
Orbital Period (minutes)
Azimuth
Elevation
Range (km)
Doppler Factor
iOS Compass Heading
iOS Angle

Next 30 passes for location: Hong Kong

Rise time Rise Azimuth (degrees) Set time Set Azimuth (degrees) Duration Max altitude (degrees)

No matching passes for this satellites